Time,TemperatureF,DewpointF,PressureIn,WindDirection,WindDirectionDegrees,WindSpeedMPH,WindSpeedGustMPH,Humidity,HourlyPrecipIn,Conditions,Clouds,dailyrainin,SoftwareType,DateUTC
2013-04-19 00:01:00,32.0,30.0,-100.00,North,0,14.0,22.0,96,0.00,,,0.02,,2013-04-19 00:01:00,
2013-04-19 00:12:00,32.0,30.0,-100.00,NNW,345,16.0,23.0,96,0.00,,,0.02,,2013-04-19 00:12:00,
2013-04-19 00:21:00,32.0,30.0,-100.00,NNW,340,16.0,25.0,96,0.00,,,0.02,,2013-04-19 00:21:00,
2013-04-19 00:32:00,32.0,30.0,-100.00,NNW,340,16.0,26.0,96,0.00,,,0.02,,2013-04-19 00:32:00,
2013-04-19 00:42:00,32.0,30.0,-100.00,NNW,335,15.0,23.0,96,0.00,,,0.02,,2013-04-19 00:42:00,
2013-04-19 00:51:00,32.0,30.0,-100.00,NNW,330,16.0,24.0,96,0.00,,,0.02,,2013-04-19 00:51:00,
2013-04-19 01:01:00,32.0,30.0,-100.00,NNW,340,16.0,26.0,96,0.00,,,0.02,,2013-04-19 01:01:00,
2013-04-19 01:11:00,32.0,30.0,-100.00,NNW,340,16.0,26.0,96,0.00,,,0.02,,2013-04-19 01:11:00,
2013-04-19 01:21:00,31.0,30.0,-100.00,NNW,335,19.0,30.0,96,0.00,,,0.02,,2013-04-19 01:21:00,
2013-04-19 01:31:00,32.0,30.0,-100.00,NNW,340,18.0,27.0,96,0.00,,,0.02,,2013-04-19 01:31:00,
2013-04-19 01:42:00,31.0,30.0,-100.00,NW,325,16.0,27.0,96,0.00,,,0.02,,2013-04-19 01:42:00,
2013-04-19 01:52:00,31.0,30.0,-100.00,NW,325,21.0,30.0,96,0.00,,,0.02,,2013-04-19 01:52:00,
2013-04-19 02:01:00,31.0,30.0,-100.00,NNW,330,19.0,32.0,96,0.00,,,0.02,,2013-04-19 02:01:00,
2013-04-19 02:11:00,31.0,30.0,-100.00,NNW,330,17.0,29.0,96,0.00,,,0.02,,2013-04-19 02:11:00,
2013-04-19 02:21:00,31.0,30.0,-100.00,NW,325,20.0,30.0,96,0.01,,,0.02,,2013-04-19 02:21:00,
2013-04-19 02:32:00,31.0,30.0,-100.00,NW,320,18.0,27.0,96,0.01,,,0.03,,2013-04-19 02:32:00,
2013-04-19 02:42:00,31.0,30.0,-100.00,NW,325,20.0,26.0,96,0.01,,,0.03,,2013-04-19 02:42:00,
2013-04-19 02:51:00,31.0,30.0,-100.00,NW,325,21.0,30.0,96,0.01,,,0.03,,2013-04-19 02:51:00,
2013-04-19 03:01:00,31.0,30.0,-100.00,NNW,330,22.0,32.0,96,0.01,,,0.03,,2013-04-19 03:01:00,
2013-04-19 03:11:00,31.0,30.0,-100.00,NNW,335,20.0,29.0,96,0.00,,,0.03,,2013-04-19 03:11:00,
2013-04-19 03:21:00,31.0,30.0,-100.00,NNW,330,22.0,30.0,96,0.00,,,0.03,,2013-04-19 03:21:00,
2013-04-19 03:33:00,31.0,30.0,-100.00,NW,325,19.0,26.0,96,0.00,,,0.03,,2013-04-19 03:33:00,
2013-04-19 03:43:00,31.0,30.0,-100.00,NW,325,19.0,27.0,96,0.01,,,0.03,,2013-04-19 03:43:00,
2013-04-19 03:53:00,31.0,30.0,-100.00,NW,325,19.0,29.0,96,0.01,,,0.03,,2013-04-19 03:53:00,
2013-04-19 04:03:00,31.0,30.0,-100.00,NW,320,19.0,28.0,96,0.01,,,0.03,,2013-04-19 04:03:00,
2013-04-19 04:13:00,31.0,30.0,-100.00,NNW,335,19.0,28.0,96,0.01,,,0.04,,2013-04-19 04:13:00,
2013-04-19 04:23:00,31.0,30.0,-100.00,NNW,340,20.0,27.0,96,0.01,,,0.04,,2013-04-19 04:23:00,
2013-04-19 04:33:00,31.0,30.0,-100.00,NNW,335,17.0,26.0,96,0.01,,,0.04,,2013-04-19 04:33:00,
2013-04-19 04:43:00,31.0,30.0,-100.00,NNW,335,16.0,24.0,96,0.01,,,0.04,,2013-04-19 04:43:00,
2013-04-19 04:52:00,31.0,30.0,-100.00,NNW,330,15.0,26.0,96,0.00,,,0.04,,2013-04-19 04:52:00,
2013-04-19 05:03:00,31.0,30.0,-100.00,NNW,330,18.0,26.0,96,0.00,,,0.04,,2013-04-19 05:03:00,
2013-04-19 05:11:00,31.0,30.0,-100.00,NNW,335,16.0,22.0,96,0.00,,,0.04,,2013-04-19 05:11:00,
2013-04-19 05:22:00,30.0,30.0,-100.00,NNW,330,17.0,24.0,96,0.00,,,0.04,,2013-04-19 05:22:00,
2013-04-19 05:32:00,30.0,30.0,-100.00,NNW,330,17.0,27.0,96,0.00,,,0.04,,2013-04-19 05:32:00,
2013-04-19 05:42:00,30.0,30.0,-100.00,NW,325,17.0,25.0,96,0.00,,,0.04,,2013-04-19 05:42:00,
2013-04-19 05:52:00,30.0,30.0,-100.00,NW,320,16.0,26.0,96,0.00,,,0.04,,2013-04-19 05:52:00,
2013-04-19 06:01:00,30.0,30.0,-100.00,NW,325,15.0,22.0,96,0.00,,,0.04,,2013-04-19 06:01:00,
2013-04-19 06:11:00,30.0,30.0,-100.00,NW,320,15.0,22.0,96,0.00,,,0.04,,2013-04-19 06:11:00,
2013-04-19 06:22:00,30.0,30.0,-100.00,NW,325,17.0,24.0,96,0.00,,,0.04,,2013-04-19 06:22:00,
2013-04-19 06:32:00,30.0,30.0,-100.00,NW,325,16.0,27.0,96,0.00,,,0.04,,2013-04-19 06:32:00,
2013-04-19 06:42:00,30.0,30.0,-100.00,NNW,330,19.0,29.0,96,0.00,,,0.04,,2013-04-19 06:42:00,
2013-04-19 06:52:00,30.0,30.0,-100.00,NNW,340,16.0,27.0,96,0.00,,,0.04,,2013-04-19 06:52:00,
2013-04-19 07:02:00,30.0,30.0,-100.00,NW,325,16.0,25.0,96,0.00,,,0.04,,2013-04-19 07:02:00,
2013-04-19 07:12:00,30.0,30.0,-100.00,NNW,330,19.0,25.0,96,0.00,,,0.04,,2013-04-19 07:12:00,
2013-04-19 07:21:00,30.0,30.0,-100.00,NW,325,21.0,27.0,96,0.00,,,0.04,,2013-04-19 07:21:00,
2013-04-19 07:32:00,30.0,30.0,-100.00,NW,315,19.0,25.0,96,0.00,,,0.04,,2013-04-19 07:32:00,
2013-04-19 07:42:00,30.0,30.0,-100.00,NW,325,20.0,27.0,96,0.00,,,0.04,,2013-04-19 07:42:00,
2013-04-19 07:52:00,30.0,30.0,-100.00,NW,325,18.0,26.0,96,0.00,,,0.04,,2013-04-19 07:52:00,
2013-04-19 08:02:00,31.0,30.0,-100.00,NNW,330,16.0,26.0,96,0.00,,,0.04,,2013-04-19 08:02:00,
2013-04-19 08:12:00,30.0,30.0,-100.00,NW,320,22.0,28.0,96,0.00,,,0.04,,2013-04-19 08:12:00,
2013-04-19 08:21:00,30.0,30.0,-100.00,NNW,330,18.0,26.0,96,0.00,,,0.04,,2013-04-19 08:21:00,
2013-04-19 08:32:00,30.0,30.0,-100.00,NNW,330,17.0,24.0,96,0.00,,,0.04,,2013-04-19 08:32:00,
2013-04-19 08:42:00,30.0,30.0,-100.00,NW,325,19.0,27.0,96,0.00,,,0.04,,2013-04-19 08:42:00,
2013-04-19 08:52:00,31.0,30.0,-100.00,NNW,330,18.0,26.0,96,0.00,,,0.04,,2013-04-19 08:52:00,
2013-04-19 09:01:00,30.0,30.0,-100.00,NW,315,18.0,24.0,96,0.00,,,0.04,,2013-04-19 09:01:00,
2013-04-19 09:11:00,30.0,28.0,-100.00,NW,320,17.0,24.0,96,0.00,,,0.04,,2013-04-19 09:11:00,
2013-04-19 09:21:00,30.0,28.0,-100.00,NW,320,19.0,28.0,95,0.00,,,0.04,,2013-04-19 09:21:00,
2013-04-19 09:32:00,30.0,28.0,-100.00,NNW,330,17.0,26.0,95,0.00,,,0.04,,2013-04-19 09:32:00,
2013-04-19 09:42:00,30.0,28.0,-100.00,NW,325,17.0,27.0,95,0.00,,,0.04,,2013-04-19 09:42:00,
2013-04-19 09:52:00,30.0,28.0,-100.00,NW,320,19.0,29.0,95,0.00,,,0.04,,2013-04-19 09:52:00,
2013-04-19 10:02:00,30.0,28.0,-100.00,NW,325,19.0,28.0,95,0.00,,,0.04,,2013-04-19 10:02:00,
2013-04-19 10:13:00,30.0,28.0,-100.00,NW,325,18.0,26.0,95,0.00,,,0.04,,2013-04-19 10:13:00,
2013-04-19 10:23:00,30.0,28.0,-100.00,NW,320,19.0,29.0,95,0.00,,,0.04,,2013-04-19 10:23:00,
2013-04-19 10:33:00,30.0,28.0,-100.00,NW,325,17.0,24.0,95,0.00,,,0.04,,2013-04-19 10:33:00,
2013-04-19 10:42:00,30.0,28.0,-100.00,NW,325,17.0,22.0,95,0.00,,,0.04,,2013-04-19 10:42:00,
2013-04-19 10:52:00,30.0,28.0,-100.00,NNW,330,17.0,27.0,94,0.00,,,0.04,,2013-04-19 10:52:00,
2013-04-19 11:02:00,30.0,28.0,-100.00,NNW,335,16.0,24.0,94,0.00,,,0.04,,2013-04-19 11:02:00,
2013-04-19 11:11:00,30.0,28.0,-100.00,NNW,335,16.0,24.0,94,0.00,,,0.04,,2013-04-19 11:11:00,
2013-04-19 11:22:00,29.0,28.0,-100.00,NNW,335,17.0,25.0,94,0.00,,,0.04,,2013-04-19 11:22:00,
2013-04-19 11:32:00,30.0,28.0,-100.00,NW,320,16.0,26.0,93,0.00,,,0.04,,2013-04-19 11:32:00,
2013-04-19 11:42:00,30.0,28.0,-100.00,NW,320,17.0,22.0,93,0.00,,,0.04,,2013-04-19 11:42:00,
2013-04-19 11:52:00,30.0,28.0,-100.00,NNW,335,19.0,24.0,92,0.00,,,0.04,,2013-04-19 11:52:00,
2013-04-19 12:02:00,30.0,28.0,-100.00,NW,320,17.0,22.0,92,0.00,,,0.04,,2013-04-19 12:02:00,
2013-04-19 12:12:00,30.0,28.0,-100.00,NW,320,18.0,23.0,92,0.00,,,0.04,,2013-04-19 12:12:00,
2013-04-19 12:22:00,30.0,28.0,-100.00,NW,320,17.0,24.0,91,0.00,,,0.04,,2013-04-19 12:22:00,
2013-04-19 12:32:00,30.0,28.0,-100.00,NW,315,19.0,24.0,91,0.00,,,0.04,,2013-04-19 12:32:00,
2013-04-19 12:42:00,30.0,28.0,-100.00,NW,325,16.0,27.0,91,0.00,,,0.04,,2013-04-19 12:42:00,
2013-04-19 12:52:00,30.0,28.0,-100.00,NNW,340,17.0,26.0,90,0.00,,,0.04,,2013-04-19 12:52:00,
2013-04-19 13:01:00,30.0,27.0,-100.00,NNW,330,19.0,26.0,88,0.00,,,0.04,,2013-04-19 13:01:00,
2013-04-19 13:11:00,30.0,27.0,-100.00,NNW,335,15.0,24.0,87,0.00,,,0.04,,2013-04-19 13:11:00,
2013-04-19 13:21:00,31.0,27.0,-100.00,NW,320,14.0,22.0,85,0.00,,,0.04,,2013-04-19 13:21:00,
2013-04-19 13:32:00,31.0,27.0,-100.00,NNW,330,13.0,21.0,85,0.00,,,0.04,,2013-04-19 13:32:00,
2013-04-19 13:42:00,31.0,27.0,-100.00,NNW,330,14.0,26.0,85,0.00,,,0.04,,2013-04-19 13:42:00,
2013-04-19 13:52:00,31.0,27.0,-100.00,NW,320,15.0,24.0,85,0.00,,,0.04,,2013-04-19 13:52:00,
2013-04-19 14:01:00,31.0,27.0,-100.00,NNW,330,16.0,24.0,85,0.00,,,0.04,,2013-04-19 14:01:00,
2013-04-19 14:11:00,31.0,27.0,-100.00,NW,320,16.0,24.0,85,0.00,,,0.04,,2013-04-19 14:11:00,
2013-04-19 14:21:00,31.0,27.0,-100.00,NW,320,14.0,22.0,85,0.00,,,0.04,,2013-04-19 14:21:00,
2013-04-19 14:32:00,31.0,27.0,-100.00,NW,320,16.0,23.0,85,0.00,,,0.04,,2013-04-19 14:32:00,
2013-04-19 14:42:00,31.0,28.0,-100.00,NNW,335,14.0,22.0,85,0.00,,,0.04,,2013-04-19 14:42:00,
2013-04-19 14:52:00,31.0,27.0,-100.00,NW,320,16.0,22.0,84,0.00,,,0.04,,2013-04-19 14:52:00,
2013-04-19 15:01:00,31.0,27.0,-100.00,NW,325,15.0,22.0,83,0.00,,,0.04,,2013-04-19 15:01:00,
2013-04-19 15:12:00,31.0,27.0,-100.00,NNW,330,16.0,26.0,83,0.00,,,0.04,,2013-04-19 15:12:00,
2013-04-19 15:21:00,32.0,27.0,-100.00,NW,315,17.0,26.0,83,0.00,,,0.04,,2013-04-19 15:21:00,
2013-04-19 15:33:00,32.0,27.0,-100.00,NNW,335,13.0,23.0,81,0.00,,,0.04,,2013-04-19 15:33:00,
2013-04-19 15:43:00,33.0,27.0,-100.00,NNW,330,12.0,21.0,79,0.00,,,0.04,,2013-04-19 15:43:00,
2013-04-19 15:52:00,32.0,25.0,-100.00,NW,320,17.0,22.0,76,0.00,,,0.04,,2013-04-19 15:52:00,
2013-04-19 16:03:00,32.0,25.0,-100.00,North,355,19.0,29.0,73,0.00,,,0.04,,2013-04-19 16:03:00,
2013-04-19 16:12:00,33.0,23.0,-100.00,North,355,19.0,29.0,68,0.00,,,0.04,,2013-04-19 16:12:00,
2013-04-19 16:23:00,33.0,23.0,-100.00,NNW,340,18.0,27.0,64,0.00,,,0.04,,2013-04-19 16:23:00,
2013-04-19 16:32:00,33.0,23.0,-100.00,NNW,330,15.0,23.0,66,0.00,,,0.04,,2013-04-19 16:32:00,
2013-04-19 16:42:00,33.0,25.0,-100.00,NNW,335,14.0,22.0,69,0.00,,,0.04,,2013-04-19 16:42:00,
2013-04-19 16:52:00,34.0,23.0,-100.00,North,350,19.0,26.0,65,0.00,,,0.04,,2013-04-19 16:52:00,
2013-04-19 17:02:00,34.0,23.0,-100.00,NNW,340,22.0,30.0,63,0.00,,,0.04,,2013-04-19 17:02:00,
2013-04-19 17:12:00,34.0,23.0,-100.00,NNW,335,23.0,31.0,63,0.00,,,0.04,,2013-04-19 17:12:00,
2013-04-19 17:21:00,35.0,23.0,-100.00,NNW,335,19.0,29.0,62,0.00,,,0.04,,2013-04-19 17:21:00,
2013-04-19 17:33:00,33.0,21.0,-100.00,NNW,340,24.0,34.0,60,0.00,,,0.04,,2013-04-19 17:33:00,
2013-04-19 17:42:00,34.0,21.0,-100.00,NNW,340,21.0,32.0,60,0.00,,,0.04,,2013-04-19 17:42:00,
2013-04-19 17:52:00,36.0,21.0,-100.00,NNW,345,14.0,24.0,56,0.00,,,0.04,,2013-04-19 17:52:00,
2013-04-19 18:02:00,36.0,21.0,-100.00,NNW,340,15.0,24.0,54,0.00,,,0.04,,2013-04-19 18:02:00,
2013-04-19 18:13:00,37.0,21.0,-100.00,NNW,345,16.0,24.0,53,0.00,,,0.04,,2013-04-19 18:13:00,
2013-04-19 18:22:00,35.0,21.0,-100.00,NW,325,18.0,26.0,56,0.00,,,0.04,,2013-04-19 18:22:00,
2013-04-19 18:33:00,36.0,21.0,-100.00,NNW,335,17.0,27.0,55,0.00,,,0.04,,2013-04-19 18:33:00,
2013-04-19 18:42:00,37.0,21.0,-100.00,NNW,335,18.0,21.0,53,0.00,,,0.04,,2013-04-19 18:42:00,
2013-04-19 18:52:00,37.0,21.0,-100.00,NNW,330,16.0,22.0,54,0.00,,,0.04,,2013-04-19 18:52:00,
2013-04-19 19:01:00,36.0,21.0,-100.00,NW,320,19.0,26.0,55,0.00,,,0.04,,2013-04-19 19:01:00,
2013-04-19 19:11:00,38.0,21.0,-100.00,NNW,340,19.0,26.0,50,0.00,,,0.04,,2013-04-19 19:11:00,
2013-04-19 19:21:00,37.0,19.0,-100.00,NNW,330,18.0,29.0,50,0.00,,,0.04,,2013-04-19 19:21:00,
2013-04-19 19:32:00,38.0,21.0,-100.00,NW,325,20.0,28.0,50,0.00,,,0.04,,2013-04-19 19:32:00,
2013-04-19 19:41:00,38.0,21.0,-100.00,NW,320,19.0,26.0,49,0.00,,,0.04,,2013-04-19 19:41:00,
2013-04-19 19:52:00,37.0,19.0,-100.00,NW,325,20.0,29.0,49,0.00,,,0.04,,2013-04-19 19:52:00,
2013-04-19 20:02:00,38.0,19.0,-100.00,NNW,335,17.0,25.0,48,0.00,,,0.04,,2013-04-19 20:02:00,
2013-04-19 20:11:00,38.0,19.0,-100.00,NNW,330,21.0,27.0,47,0.00,,,0.04,,2013-04-19 20:11:00,
2013-04-19 20:22:00,36.0,21.0,-100.00,NW,315,21.0,27.0,53,0.00,,,0.03,,2013-04-19 20:22:00,
2013-04-19 20:32:00,37.0,23.0,-100.00,NW,325,16.0,27.0,56,0.00,,,0.03,,2013-04-19 20:32:00,
2013-04-19 20:41:00,37.0,23.0,-100.00,NNW,330,15.0,26.0,55,0.00,,,0.03,,2013-04-19 20:41:00,
2013-04-19 20:51:00,38.0,21.0,-100.00,NW,325,20.0,26.0,51,0.00,,,0.03,,2013-04-19 20:51:00,
2013-04-19 21:01:00,37.0,21.0,-100.00,NW,320,22.0,29.0,51,0.00,,,0.03,,2013-04-19 21:01:00,
2013-04-19 21:11:00,36.0,21.0,-100.00,NW,325,18.0,26.0,51,0.00,,,0.03,,2013-04-19 21:11:00,
2013-04-19 21:21:00,38.0,23.0,-100.00,NW,325,15.0,24.0,54,0.00,,,0.03,,2013-04-19 21:21:00,
2013-04-19 21:32:00,37.0,21.0,-100.00,NW,320,15.0,24.0,53,0.00,,,0.03,,2013-04-19 21:32:00,
2013-04-19 21:42:00,38.0,21.0,-100.00,NW,325,16.0,24.0,49,0.00,,,0.03,,2013-04-19 21:42:00,
2013-04-19 21:52:00,37.0,21.0,-100.00,NW,320,18.0,23.0,50,0.00,,,0.03,,2013-04-19 21:52:00,
2013-04-19 22:02:00,37.0,21.0,-100.00,NNW,330,15.0,23.0,51,0.00,,,0.03,,2013-04-19 22:02:00,
2013-04-19 22:12:00,38.0,21.0,-100.00,NW,325,14.0,20.0,51,0.00,,,0.03,,2013-04-19 22:12:00,
2013-04-19 22:22:00,38.0,21.0,-100.00,NW,325,14.0,21.0,50,0.00,,,0.03,,2013-04-19 22:22:00,
2013-04-19 22:33:00,37.0,21.0,-100.00,NW,320,18.0,24.0,50,0.00,,,0.03,,2013-04-19 22:33:00,
2013-04-19 22:42:00,38.0,19.0,-100.00,NW,320,16.0,26.0,48,0.00,,,0.03,,2013-04-19 22:42:00,
2013-04-19 22:52:00,37.0,19.0,-100.00,NW,325,17.0,23.0,48,0.00,,,0.03,,2013-04-19 22:52:00,
2013-04-19 23:02:00,37.0,19.0,-100.00,NNW,330,16.0,23.0,49,0.00,,,0.03,,2013-04-19 23:02:00,
2013-04-19 23:11:00,37.0,19.0,-100.00,NW,320,15.0,22.0,50,0.00,,,0.03,,2013-04-19 23:11:00,
2013-04-19 23:22:00,37.0,19.0,-100.00,NW,315,16.0,21.0,48,0.00,,,0.03,,2013-04-19 23:22:00,
2013-04-19 23:32:00,37.0,19.0,-100.00,NNW,330,11.0,20.0,49,0.00,,,0.03,,2013-04-19 23:32:00,
2013-04-19 23:42:00,37.0,19.0,-100.00,NW,325,14.0,21.0,49,0.00,,,0.03,,2013-04-19 23:42:00,
2013-04-19 23:52:00,37.0,19.0,-100.00,NW,315,14.0,19.0,48,0.00,,,0.03,,2013-04-19 23:52:00,